Preview of NWS' New Version of Forecast
This preview is not operational and should not be used for support decisions.

Regional Weather Roundup (RWR)

Issued by National Weather Service (NWS)

                            
000
ASUS45 KBOU 221610
RWRCO 

WEATHER ROUNDUP FOR COLORADO
NATIONAL WEATHER SERVICE DENVER/BOULDER CO
1000 AM MDT MON JUL 22 2019

NOTE: "FAIR" INDICATES FEW OR NO CLOUDS BELOW 12000 FEET WITH NO
SIGNIFICANT WEATHER AND/OR OBSTRUCTIONS TO VISIBILITY.

COZ001>005-013-030-031-221700-
...NORTHWEST COLORADO...
  
CITY           SKY/WX    TMP DP  RH WIND       PRES   REMARKS
CRAIG          FAIR      81  51  35 E10G16    30.31F                  
HAYDEN         FAIR      75  51  43 E13       30.36S                  
MEEKER         FAIR      74  49  41 SW3       30.32F                  
RANGELY        FAIR      82  47  28 NE7       30.23S                  
RABBIT EARS PA NOT AVBL                                               
STEAMBOAT SPGS FAIR      70  53  53 CALM      30.38F                  
WALDEN         NOT AVBL                                               
$$

COZ006>008-011-221700-
...WEST CENTRAL VALLEYS...
  
CITY           SKY/WX    TMP DP  RH WIND       PRES   REMARKS
GRAND JUNCTION FAIR      84  47  27 SE15      30.20S                  
MONTROSE       FAIR      81  47  30 CALM      30.31R                  
EAGLE          FAIR      71  47  42 S3        30.41F                  
RIFLE          FAIR      81  49  32 E6        30.27F                  
DELTA          FAIR      82  44  26 CALM      30.26S                  
NUCLA          FAIR      79  28  15 N3        30.34R                  
$$

COZ017>023-064>068-221700-
...SOUTHWEST COLORADO...
  
CITY           SKY/WX    TMP DP  RH WIND       PRES   REMARKS
DURANGO        FAIR      76  46  34 SE6G21    30.40S                  
CORTEZ         FAIR      80  48  32 MISG      30.31S                  
PAGOSA SPRINGS FAIR      73  44  35 CALM      30.48S                  
TELLURIDE      FAIR      72  39  30 CALM      30.57S                  
WOLF CREEK PAS NOT AVBL                                               
$$

COZ009-010-012-014-032>034-037-058>063-221700-
...CENTRAL COLORADO...
  
CITY           SKY/WX    TMP DP  RH WIND       PRES   REMARKS
ASPEN          FAIR      72  45  37 N6        30.44F                  
BUENA VISTA    FAIR      66  45  46 CALM      30.55F                  
COPPER MTN     FAIR      64  41  42 NE6       30.80S                  
BERTHOUD PASS  FAIR      50  37  62 SE8G17    30.85R                  
COTTONWOOD PAS NOT AVBL                                               
GUNNISON       FAIR      68  48  48 N7        30.48F                  
GRANBY         NOT AVBL                                               
KREMMLING      FAIR      68  50  52 CALM      30.47F                  
LEADVILLE      FAIR      57  46  66 S8        30.65S                  
SALIDA         FAIR      66  50  55 CALM      30.60F                  
SUNLIGHT       FAIR      61  37  41 S5        30.72R                  
WILKERSON PASS FAIR      54  43  66 CALM      30.80R                  
$$

COZ069>075-221700-
...SAN LUIS VALLEY/SANGRE DE CRISTO MOUNTAINS...
  
CITY           SKY/WX    TMP DP  RH WIND       PRES   REMARKS
ALAMOSA        FAIR      67  47  48 CALM      30.51S                  
DEL NORTE      FAIR      68  46  45 CALM      30.52F                  
LA VETA PASS   NOT AVBL                                               
SAGUACHE       FAIR      68  46  45 CALM      30.52F                  
$$

COZ035-036-038>040-221700-
...NORTHERN COLORADO FRONT RANGE...
  
CITY           SKY/WX    TMP DP  RH WIND       PRES   REMARKS
DENVER INTL AP PTSUNNY   71  56  58 CALM      30.38F                  
AURORA         MOSUNNY   73  54  51 S6        30.40F                  
FRONT RANGE AP PTSUNNY   75  59  57 SE13      30.41S                  
ERIE MUNI ARPT PTSUNNY   69  62  78 N3        30.43S                  
BOULDER MUN AP CLOUDY    68  61  77 E3        30.39S                  
CENTENNIAL     FAIR      72  55  55 CALM      30.40F                  
BROOMFIELD     PTSUNNY   70  61  73 NE7       30.41S                  
FORT COLLINS   FAIR      70  61  73 VRB3      30.38F                  
LONGMONT       CLOUDY    73  62  68 CALM      30.39S                  
$$

COZ041-046-047-076>085-087-088-221700-
...PIKES PEAK/PALMER DIVIDE AND SOUTHERN FOOTHILLS...
  
CITY           SKY/WX    TMP DP  RH WIND       PRES   REMARKS
COLO. SPRINGS  PTSUNNY   63  55  75 S10       30.49S                  
A. F. ACADEMY  CLOUDY    60  55  84 S14       30.47S                  
SCHRIEVER AFB  NOT AVBL                                               
CHEYENNE MTN   NOT AVBL                                               
ELLICOTT         N/A    N/A N/A N/A S13       30.46S                  
FALCON         CLOUDY    61  54  79 S12G23    30.52S                  
FORT CARSON    CLOUDY    64  56  74 S10       30.45S                  
LIMON          CLOUDY    66  61  84 S15G21    30.43S                  
MONUMENT HILL  FAIR      61  54  77 S20       30.50S                  
CANON CITY     PTSUNNY   72  61  68 E7        30.44S                  
WALSENBURG     NOT AVBL                                               
TRINIDAD       FAIR      71  57  61 E6        30.43F                  
$$

COZ042>045-048>051-090-091-221700-
...NORTHEAST COLORADO...
  
CITY           SKY/WX    TMP DP  RH WIND       PRES   REMARKS
GREELEY ARPT   CLOUDY    71  62  73 E9        30.37S                  
AKRON          CLOUDY    70  61  73 SE10G20   30.39F                  
BURLINGTON     CLOUDY    66  62  87 SE6       30.40S                  
WRAY           CLOUDY    68  57  68 E12       30.39R                  
YUMA           CLOUDY    61  43  51 E8        30.39S                  
STERLING       PTSUNNY   72  63  73 S8        30.36F                  
HOLYOKE        CLOUDY    68  57  68 E9        30.39S                  
FORT MORGAN    NOT AVBL                                               
$$

COZ086-089-092>099-221700-
...SOUTHEAST COLORADO...
  
CITY           SKY/WX    TMP DP  RH WIND       PRES   REMARKS
PUEBLO         FAIR      71  60  68 CALM      30.39F                  
LA JUNTA       CLOUDY    70  63  78 E9        30.38F                  
LAMAR          CLOUDY    72  61  68 NE7       30.35F                  
SPRINGFIELD      N/A     70  59  68 VRB5      30.38F                  
$$